Weather History for KBUF - February, 2015

Change the Weather History Date:

Sunday, February 15, 2015

  Actual Average Record
Temperature  
Mean Temperature -4 °F 26 °F  
Max Temperature 2 °F 33 °F 63 °F (1954)
Min Temperature -10 °F 19 °F -16 °F (1943)
Degree Days  
Heating Degree Days 69 39  
Month to date heating degree days 756 596  
Since 1 July heating degree days 4395 4255  
Cooling Degree Days 0 0  
Month to date cooling degree days 0 0  
Year to date cooling degree days 0 0  
Moisture  
Dew Point -12 °F    
Average Humidity 72    
Maximum Humidity 82    
Minimum Humidity 61    
Precipitation  
Precipitation T in 0.09 in 1.50 in (1990)
Month to date precipitation 2.02 1.32  
Year to date precipitation 4.61 4.50  
Snow  
Snow 0.10 in 0.60 in 9.40 in (1990)
Month to date snowfall 39.5 9.7  
Since 1 July snowfall 96.3 71.2  
Snow Depth 26.00 in    
Sea Level Pressure  
Sea Level Pressure 30.26 in    
Wind  
Wind Speed 14 mph (West)    
Max Wind Speed 23 mph    
Max Gust Speed 29 mph    
Visibility 4 miles    
Events Snow    
T = Trace of Precipitation, MM = Missing Value Source: NWS Daily Summary

Daily Weather History Graph

Daily Weather History Graph

Search for Another Location

Airport or City:

Trip Planner

Search our weather history database for the weather conditions in past years. The results will help you decide how hot, cold, wet, or windy it might be!

Date:

Astronomy

Feb. 15, 2015 Rise Set
Actual Time 7:12 AM EST 5:46 PM EST
Civil Twilight 6:43 AM EST 6:15 PM EST
Nautical Twilight 6:10 AM EST 6:48 PM EST
Astronomical Twilight 5:37 AM EST 7:21 PM EST
Moon 4:14 AM EST (2/15) 2:14 PM EST (2/15)
Length of Visible Light 11h 31m
Length of Day
10h 33m
Waning Crescent, 15% of the Moon is Illuminated
Feb 15
Waning Crescent
Feb 18
New
Feb 25
First Quarter
Mar 5
Full
Mar 13
Last Quarter

Hourly Weather History & Observations

Time (EST) Temp. Windchill Dew Point Humidity Pressure Visibility Wind Dir Wind Speed Gust Speed Precip Events Conditions
12:54 AM -0.0 °F -20.1 °F -5.1 °F 79% 29.99 in 1.5 mi NW 16.1 mph - 0.00 in Snow Light Snow
1:18 AM -0.0 °F -18.7 °F -6.0 °F 76% 29.95 in 2.0 mi NW 13.8 mph - 0.00 in Snow Light Snow
1:33 AM -0.4 °F -19.9 °F -5.8 °F 78% 29.96 in 3.0 mi NW 15.0 mph - N/A Snow Light Snow
1:40 AM -0.9 °F -20.6 °F -7.1 °F 75% 29.97 in 3.0 mi WNW 15.0 mph 23.0 mph 0.00 in Snow Light Snow
1:54 AM -0.9 °F -20.6 °F -7.1 °F 75% 30.03 in 3.0 mi WNW 15.0 mph 23.0 mph 0.00 in Snow Light Snow
2:06 AM -0.9 °F -20.6 °F -7.1 °F 75% 29.99 in 3.0 mi NW 15.0 mph 24.2 mph 0.00 in Snow Light Snow
2:23 AM -0.9 °F -21.2 °F -7.1 °F 75% 30.00 in 2.5 mi WNW 16.1 mph 23.0 mph 0.00 in Snow Light Snow
2:54 AM -0.9 °F -20.6 °F -8.0 °F 72% 30.07 in 2.5 mi NW 15.0 mph - 0.00 in Snow Light Snow
2:56 AM -2.0 °F -23.3 °F -8.0 °F 76% 30.02 in 3.0 mi WNW 17.3 mph - 0.00 in Snow Light Snow
3:04 AM -2.0 °F -21.9 °F -8.0 °F 76% 30.03 in 2.5 mi WNW 15.0 mph - 0.00 in Snow Light Snow
3:15 AM -2.0 °F -23.9 °F -9.0 °F 72% 30.03 in 3.0 mi NW 18.4 mph 24.2 mph 0.00 in Snow Light Snow
3:40 AM -2.0 °F -20.5 °F -9.0 °F 72% 30.05 in 7.0 mi NW 12.7 mph - 0.00 in Snow Light Snow
3:54 AM -2.2 °F -21.5 °F -9.4 °F 71% 30.06 in 7.0 mi NW 13.8 mph - N/A Snow Light Snow
4:14 AM -2.9 °F -20.8 °F -9.0 °F 75% 30.07 in 4.0 mi NW 11.5 mph - 0.00 in Snow Light Snow
4:47 AM -4.0 °F -23.0 °F -9.9 °F 76% 30.10 in 3.0 mi NW 12.7 mph - 0.00 in Snow Light Snow
4:54 AM -4.0 °F -23.7 °F -11.0 °F 72% 30.16 in 3.0 mi NW 13.8 mph 23.0 mph 0.00 in Snow Light Snow
5:33 AM -5.1 °F -24.3 °F -11.9 °F 72% 30.13 in 6.0 mi NW 12.7 mph - 0.00 in Snow Light Snow
5:54 AM -6.0 °F -23.6 °F -11.9 °F 75% 30.21 in 5.0 mi WNW 10.4 mph - 0.00 in Snow Light Snow
6:54 AM -6.0 °F -25.5 °F -13.0 °F 72% 30.24 in 7.0 mi NW 12.7 mph - 0.00 in Snow Light Snow
7:16 AM -7.1 °F -25.9 °F -13.0 °F 75% 30.19 in 7.0 mi NW 11.5 mph - 0.00 in Snow Light Snow
7:54 AM -7.1 °F -25.0 °F -14.1 °F 72% 30.29 in 4.0 mi WNW 10.4 mph - 0.00 in Snow Light Snow
8:54 AM -6.0 °F -24.6 °F -15.0 °F 65% 30.32 in 7.0 mi WNW 11.5 mph - 0.00 in   Mostly Cloudy
9:54 AM -5.1 °F -25.9 °F -15.0 °F 62% 30.34 in 7.0 mi WNW 15.0 mph - N/A   Mostly Cloudy
10:15 AM -5.1 °F -25.1 °F -13.0 °F 69% 30.28 in 2.0 mi West 13.8 mph - 0.00 in Snow Light Snow
10:54 AM -4.0 °F -25.2 °F -15.0 °F 59% 30.36 in 3.0 mi West 16.1 mph - 0.00 in Snow Light Snow
11:54 AM -4.0 °F -24.5 °F -14.1 °F 62% 30.37 in 3.0 mi WNW 15.0 mph - 0.00 in Snow Light Snow
12:04 PM -5.1 °F -25.1 °F -14.1 °F 65% 30.31 in 1.0 mi WNW 13.8 mph - 0.00 in Snow Light Snow
12:54 PM -4.0 °F -22.1 °F -11.9 °F 69% 30.38 in 1.0 mi WNW 11.5 mph - 0.00 in Snow Light Snow
1:54 PM -2.0 °F -23.3 °F -9.9 °F 69% 30.36 in 1.0 mi West 17.3 mph - 0.00 in Snow Light Snow
2:33 PM -2.9 °F -23.8 °F -14.1 °F 59% 30.30 in 7.0 mi WSW 16.1 mph - 0.00 in   Mostly Cloudy
2:54 PM -2.9 °F -25.6 °F -15.0 °F 56% 30.37 in 9.0 mi WSW 19.6 mph 23.0 mph 0.00 in   Mostly Cloudy
3:40 PM -4.0 °F -27.0 °F -14.1 °F 62% 30.31 in 8.0 mi SW 19.6 mph - N/A   Mostly Cloudy
3:54 PM -4.0 °F -24.5 °F -14.1 °F 62% 30.38 in 9.0 mi SW 15.0 mph - N/A   Overcast
4:13 PM -4.0 °F -24.5 °F -13.0 °F 65% 30.31 in 1.5 mi WSW 15.0 mph - 0.00 in Snow Light Snow
4:54 PM -4.0 °F -25.2 °F -11.9 °F 69% 30.38 in 1.5 mi WSW 16.1 mph - 0.00 in Snow Light Snow
5:03 PM -4.0 °F -25.8 °F -13.0 °F 65% 30.31 in 3.0 mi SW 17.3 mph - 0.00 in Snow Light Snow
5:24 PM -4.0 °F -25.2 °F -13.0 °F 65% 30.32 in 5.0 mi WSW 16.1 mph - 0.00 in Snow Light Snow
5:54 PM -2.0 °F -22.6 °F -13.0 °F 60% 30.39 in 9.0 mi WSW 16.1 mph 24.2 mph 0.00 in   Overcast
6:09 PM -2.0 °F -21.2 °F -15.0 °F 54% 30.33 in 10.0 mi West 13.8 mph - N/A   Overcast
6:27 PM -2.0 °F -21.9 °F -14.1 °F 57% 30.34 in 1.5 mi West 15.0 mph - 0.00 in Snow Light Snow
6:54 PM -2.9 °F -23.1 °F -14.1 °F 59% 30.43 in 1.5 mi West 15.0 mph - 0.00 in Snow Light Snow
7:19 PM -2.9 °F -23.8 °F -14.1 °F 59% 30.36 in 1.5 mi West 16.1 mph - 0.00 in Snow Light Snow
7:31 PM -2.9 °F -23.1 °F -14.1 °F 59% 30.36 in 2.5 mi West 15.0 mph - 0.00 in Snow Light Snow
7:42 PM -4.0 °F -23.7 °F -14.1 °F 62% 30.36 in 2.0 mi West 13.8 mph - 0.00 in Snow Light Snow
7:54 PM -4.0 °F -21.2 °F -13.0 °F 65% 30.43 in 2.5 mi West 10.4 mph - 0.00 in Snow Light Snow
8:05 PM -4.0 °F -22.1 °F -13.0 °F 65% 30.36 in 3.0 mi West 11.5 mph - 0.00 in Snow Light Snow
8:54 PM -5.1 °F -21.5 °F -11.9 °F 72% 30.45 in 4.0 mi WSW 9.2 mph - 0.00 in Snow Light Snow
9:07 PM -5.1 °F -24.3 °F -11.9 °F 72% 30.37 in 4.0 mi West 12.7 mph - 0.00 in Snow Light Snow
9:54 PM -5.1 °F -19.1 °F -9.9 °F 80% 30.44 in 3.0 mi West 6.9 mph - 0.00 in Snow Light Snow
10:23 PM -6.0 °F -22.6 °F -11.9 °F 75% 30.37 in 2.5 mi SW 9.2 mph - 0.00 in Snow Light Snow
10:40 PM -8.0 °F -23.9 °F -11.9 °F 83% 30.37 in 2.5 mi SSW 8.1 mph - 0.00 in Snow Light Snow
10:54 PM -9.0 °F -26.4 °F -14.1 °F 79% 30.44 in 2.0 mi SSW 9.2 mph - 0.00 in   Haze
11:34 PM -9.0 °F -27.4 °F -15.0 °F 75% 30.37 in 3.0 mi SW 10.4 mph - 0.00 in Snow Light Snow
11:54 PM -9.0 °F -29.3 °F -16.1 °F 71% 30.44 in 4.0 mi SW 12.7 mph - 0.00 in Snow Light Snow